{"data":{"norad_id":64958,"epoch":"2026-05-25T04:44:32.787744Z","epoch_age_seconds":55064,"freshness":"FRESH","line1":"1 64958U 25159C   26145.19760171  .00000071  00000+0  13053-3 0  9996","line2":"2 64958  86.4885 290.0696 0001946  97.1366 262.9990 13.24406672 40081","mean_motion":13.24406672,"eccentricity":0.0001946,"inclination_deg":86.4885,"raan_deg":290.0696,"arg_perigee_deg":97.1366,"mean_anomaly_deg":262.999,"bstar":0.00013053,"rev_number":4008,"period_min":108.72793307704,"perigee_km":1166.4663613197,"apogee_km":1169.4032924747,"semimajor_km":7546.0718268972,"source":"CELESTRAK","updated_at":"2026-05-25T13:38:04.941500Z"}}